{"data":{"norad_id":56053,"intl_designator":"2023-043H","name":"ONEWEB-0551","alt_names":[],"object_type":"PAYLOAD","status":"ACTIVE","operator":null,"country":"UK","launch_date":"2023-03-26","launch_site_code":"SRILR","launch_vehicle":null,"mission":null,"orbit_class":"UNKNOWN","rcs_meters":null,"size_class":null,"mass_kg":null,"dimensions":null,"purposes":["comms"],"wikipedia_slug":null,"has_3d_model":false,"image_url":null,"decayed_at":null,"tle_current":{"epoch":"2026-05-25T00:48:40.688064Z","epoch_age_seconds":65438,"freshness":"FRESH","line1":"1 56053U 23043H   26145.03380426  .00000029  00000+0  41845-4 0  9991","line2":"2 56053  87.8989 263.8402 0001573 103.7748 256.3557 13.15549048153351","mean_motion":13.15549048,"eccentricity":0.0001573,"inclination_deg":87.8989,"raan_deg":263.8402,"arg_perigee_deg":103.7748,"mean_anomaly_deg":256.3557,"bstar":4.1845e-5,"rev_number":15335,"period_min":109.46000091667,"perigee_km":1200.5765353586,"apogee_km":1202.9611737405,"semimajor_km":7579.9058545495,"source":"CELESTRAK","updated_at":"2026-05-25T13:38:22.701244Z"}}}